| time (UTC) | temp F | wind direction | speed knots | gust knots | rain 1hr in | rain 24hr in | rain mn in | humidity % | barometer mb |
| 20260505212529 | 78 | 109 | 0.9 | 11.3 | 0.00 | 0.00 | 0.00 | 24 | 1014.2 |
| 20260505212025 | 78 | 219 | 3.5 | 11.3 | 0.00 | 0.00 | 0.00 | 25 | 1014.1 |
| 20260505211537 | 79 | 115 | 5.2 | 11.3 | 0.00 | 0.00 | 0.00 | 24 | 1014.3 |
| 20260505211028 | 79 | 158 | 0.0 | 3.5 | 0.00 | 0.00 | 0.00 | 23 | 1014.2 |
| 20260505210526 | 80 | 280 | 0.0 | 3.5 | 0.00 | 0.00 | 0.00 | 24 | 1014.3 |
| 20260505210037 | 80 | 122 | 0.9 | 3.5 | 0.00 | 0.00 | 0.00 | 23 | 1014.4 |
| 20260505205524 | 80 | 132 | 0.9 | 3.5 | 0.00 | 0.00 | 0.00 | 22 | 1014.4 |
| 20260505205024 | 80 | 125 | 0.9 | 5.2 | 0.00 | 0.00 | 0.00 | 22 | 1014.4 |
| 20260505204542 | 80 | 263 | 0.9 | 5.2 | 0.00 | 0.00 | 0.00 | 22 | 1014.4 |
| 20260505204024 | 80 | 135 | 1.7 | 5.2 | 0.00 | 0.00 | 0.00 | 21 | 1014.5 |
| 20260505203524 | 81 | 180 | 0.9 | 7.0 | 0.00 | 0.00 | 0.00 | 22 | 1014.6 |
| 20260505203048 | 81 | 141 | 2.6 | 8.7 | 0.00 | 0.00 | 0.00 | 22 | 1014.6 |
| 20260505202525 | 80 | 118 | 1.7 | 8.7 | 0.00 | 0.00 | 0.00 | 21 | 1014.6 |
| 20260505202024 | 80 | 132 | 1.7 | 7.0 | 0.00 | 0.00 | 0.00 | 23 | 1014.6 |
| 20260505201542 | 80 | 98 | 0.9 | 7.0 | 0.00 | 0.00 | 0.00 | 25 | 1014.7 |
| 20260505201025 | 81 | 138 | 1.7 | 7.0 | 0.00 | 0.00 | 0.00 | 24 | 1014.8 |
| 20260505200527 | 81 | 135 | 0.9 | 2.6 | 0.00 | 0.00 | 0.00 | 22 | 1014.8 |
| 20260505200048 | 82 | 304 | 0.9 | 8.7 | 0.00 | 0.00 | 0.00 | 21 | 1014.8 |
| 20260505195524 | 82 | 129 | 0.9 | 8.7 | 0.00 | 0.00 | 0.00 | 22 | 1014.9 |
| 20260505195024 | 82 | 130 | 2.6 | 8.7 | 0.00 | 0.00 | 0.00 | 23 | 1014.8 |
| 20260505194546 | 82 | 156 | 0.0 | 6.1 | 0.00 | 0.00 | 0.00 | 23 | 1015.0 |
| 20260505194026 | 81 | 83 | 0.9 | 6.1 | 0.00 | 0.00 | 0.00 | 24 | 1015.1 |
| 20260505193525 | 81 | 98 | 0.9 | 6.1 | 0.00 | 0.00 | 0.00 | 21 | 1015.3 |
| 20260505193037 | 82 | 139 | 1.7 | 6.1 | 0.00 | 0.00 | 0.00 | 23 | 1015.4 |
| 20260505192528 | 82 | 129 | 0.9 | 3.5 | 0.00 | 0.00 | 0.00 | 22 | 1015.4 |
| 20260505192024 | 81 | 248 | 0.9 | 3.5 | 0.00 | 0.00 | 0.00 | 25 | 1015.4 |
| 20260505191537 | 82 | 72 | 0.0 | 4.3 | 0.00 | 0.00 | 0.00 | 21 | 1015.6 |
| 20260505191026 | 82 | 146 | 0.9 | 4.3 | 0.00 | 0.00 | 0.00 | 22 | 1015.7 |
| 20260505190524 | 81 | 131 | 0.0 | 7.0 | 0.00 | 0.00 | 0.00 | 27 | 1015.7 |
| 20260505190045 | 80 | 147 | 0.9 | 7.0 | 0.00 | 0.00 | 0.00 | 24 | 1015.9 |
| 20260505185524 | 81 | 174 | 1.7 | 9.6 | 0.00 | 0.00 | 0.00 | 23 | 1016.0 |
| 20260505185025 | 81 | 229 | 2.6 | 9.6 | 0.00 | 0.00 | 0.00 | 24 | 1016.1 |
| 20260505184540 | 82 | 123 | 0.9 | 3.5 | 0.00 | 0.00 | 0.00 | 23 | 1016.0 |
| 20260505184023 | 81 | 128 | 1.7 | 3.5 | 0.00 | 0.00 | 0.00 | 24 | 1016.1 |
| 20260505183523 | 81 | 0 | 0.0 | 6.1 | 0.00 | 0.00 | 0.00 | 24 | 1016.1 |
| 20260505183039 | 81 | 131 | 0.9 | 6.1 | 0.00 | 0.00 | 0.00 | 24 | 1016.2 |
| 20260505182524 | 80 | 269 | 1.7 | 6.1 | 0.00 | 0.00 | 0.00 | 27 | 1016.1 |
| 20260505182024 | 79 | 285 | 1.7 | 5.2 | 0.00 | 0.00 | 0.00 | 25 | 1016.0 |
| 20260505181540 | 81 | 279 | 0.9 | 5.2 | 0.00 | 0.00 | 0.00 | 22 | 1016.1 |
| 20260505181025 | 80 | 143 | 0.0 | 5.2 | 0.00 | 0.00 | 0.00 | 25 | 1016.1 |
| 20260505180525 | 80 | 282 | 0.9 | 5.2 | 0.00 | 0.00 | 0.00 | 25 | 1016.4 |
| 20260505180100 | 79 | 153 | 0.9 | 4.3 | 0.00 | 0.00 | 0.00 | 22 | 1016.4 |
| 20260505175530 | 80 | 269 | 0.9 | 4.3 | 0.00 | 0.00 | 0.00 | 23 | 1016.4 |
| 20260505175029 | 80 | 134 | 0.9 | 5.2 | 0.00 | 0.00 | 0.00 | 23 | 1016.5 |
| 20260505174557 | 80 | 242 | 1.7 | 5.2 | 0.00 | 0.00 | 0.00 | 22 | 1016.7 |
| 20260505174023 | 80 | 133 | 0.9 | 4.3 | 0.00 | 0.00 | 0.00 | 24 | 1016.8 |
| 20260505173526 | 80 | 129 | 0.9 | 6.1 | 0.00 | 0.00 | 0.00 | 23 | 1017.0 |
| 20260505173044 | 79 | 233 | 0.9 | 9.6 | 0.00 | 0.00 | 0.00 | 25 | 1016.9 |
| 20260505172522 | 79 | 134 | 1.7 | 9.6 | 0.00 | 0.00 | 0.00 | 27 | 1016.9 |
| 20260505172022 | 80 | 129 | 1.7 | 9.6 | 0.00 | 0.00 | 0.00 | 27 | 1016.8 |
| 20260505171538 | 81 | 197 | 0.9 | 4.3 | 0.00 | 0.00 | 0.00 | 24 | 1017.1 |
| 20260505171021 | 80 | 89 | 0.0 | 4.3 | 0.00 | 0.00 | 0.00 | 25 | 1017.1 |
| 20260505170522 | 80 | 125 | 0.9 | 5.2 | 0.00 | 0.00 | 0.00 | 25 | 1017.1 |
| 20260505170038 | 79 | 227 | 0.0 | 8.7 | 0.00 | 0.00 | 0.00 | 25 | 1017.1 |
| 20260505165522 | 79 | 301 | 0.9 | 8.7 | 0.00 | 0.00 | 0.00 | 25 | 1016.8 |
| 20260505165024 | 79 | 129 | 2.6 | 8.7 | 0.00 | 0.00 | 0.00 | 24 | 1016.8 |
| 20260505164535 | 79 | 129 | 1.7 | 5.2 | 0.00 | 0.00 | 0.00 | 25 | 1016.9 |
| 20260505164022 | 80 | 257 | 0.0 | 3.5 | 0.00 | 0.00 | 0.00 | 27 | 1016.9 |
| 20260505163521 | 79 | 141 | 0.9 | 3.5 | 0.00 | 0.00 | 0.00 | 27 | 1016.9 |
| 20260505163041 | 79 | 137 | 0.9 | 2.6 | 0.00 | 0.00 | 0.00 | 28 | 1016.8 |
| 20260505162522 | 78 | 117 | 0.9 | 5.2 | 0.00 | 0.00 | 0.00 | 29 | 1016.8 |
| 20260505162022 | 78 | 160 | 0.9 | 5.2 | 0.00 | 0.00 | 0.00 | 27 | 1017.0 |
| 20260505161539 | 78 | 139 | 1.7 | 4.3 | 0.00 | 0.00 | 0.00 | 28 | 1017.2 |
| 20260505161028 | 78 | 174 | 0.0 | 6.1 | 0.00 | 0.00 | 0.00 | 31 | 1017.2 |
| 20260505160523 | 77 | 98 | 1.7 | 6.1 | 0.00 | 0.00 | 0.00 | 31 | 1017.2 |
| 20260505153040 | 74 | 61 | 0.0 | 3.5 | 0.00 | 0.00 | 0.00 | 35 | 1017.6 |
| 20260505152522 | 73 | 286 | 0.9 | 2.6 | 0.00 | 0.00 | 0.00 | 37 | 1017.6 |
| 20260505152022 | 72 | 276 | 0.0 | 2.6 | 0.00 | 0.00 | 0.00 | 38 | 1017.7 |
| 20260505151535 | 72 | 300 | 0.9 | 3.5 | 0.00 | 0.00 | 0.00 | 38 | 1017.7 |
| 20260505151022 | 71 | 103 | 0.9 | 5.2 | 0.00 | 0.00 | 0.00 | 39 | 1017.6 |
| 20260505150524 | 71 | 134 | 1.7 | 5.2 | 0.00 | 0.00 | 0.00 | 39 | 1017.8 |
| 20260505140522 | 68 | 339 | 0.0 | 1.7 | 0.00 | 0.00 | 0.00 | 41 | 1017.4 |
| 20260505125024 | 62 | 0 | 0.0 | 0.9 | 0.00 | 0.00 | 0.00 | 50 | 1017.0 |
| 20260505124546 | 60 | 0 | 0.0 | 4.3 | 0.00 | 0.00 | 0.00 | 53 | 1016.9 |
| 20260505124025 | 58 | 95 | 0.9 | 4.3 | 0.00 | 0.00 | 0.00 | 55 | 1016.8 |
| 20260505123525 | 57 | 28 | 0.0 | 1.7 | 0.00 | 0.00 | 0.00 | 55 | 1017.2 |
| 20260505123041 | 57 | 0 | 0.9 | 1.7 | 0.00 | 0.00 | 0.00 | 56 | 1017.1 |
| 20260505122523 | 56 | 0 | 0.0 | 0.9 | 0.00 | 0.00 | 0.00 | 56 | 1017.1 |
| 20260505122026 | 55 | 0 | 0.0 | 0.9 | 0.00 | 0.00 | 0.00 | 57 | 1017.0 |
| 20260505121539 | 55 | 0 | 0.0 | 0.9 | 0.00 | 0.00 | 0.00 | 57 | 1016.9 |
| 20260505121026 | 54 | 0 | 0.0 | 0.9 | 0.00 | 0.00 | 0.00 | 58 | 1016.7 |
| 20260505120522 | 54 | 110 | 0.0 | 0.9 | 0.00 | 0.00 | 0.00 | 59 | 1016.7 |
| 20260505120041 | 54 | 0 | 0.0 | 0.0 | 0.00 | 0.00 | 0.00 | 59 | 1016.6 |
| 20260505115522 | 54 | 110 | 0.0 | 0.0 | 0.00 | 0.00 | 0.00 | 60 | 1016.7 |
| 20260505115028 | 53 | 0 | 0.0 | 0.0 | 0.00 | 0.00 | 0.00 | 60 | 1016.6 |
| 20260505114538 | 53 | 0 | 0.0 | 0.0 | 0.00 | 0.00 | 0.00 | 58 | 1016.4 |
| 20260505114025 | 52 | 0 | 0.0 | 0.9 | 0.00 | 0.00 | 0.00 | 58 | 1016.4 |
| 20260505113526 | 52 | 0 | 0.0 | 0.9 | 0.00 | 0.00 | 0.00 | 58 | 1016.4 |
| 20260505113035 | 52 | 0 | 0.0 | 0.0 | 0.00 | 0.00 | 0.00 | 58 | 1016.4 |
| 20260505112522 | 52 | 0 | 0.0 | 0.0 | 0.00 | 0.00 | 0.00 | 58 | 1016.3 |
| 20260505112022 | 52 | 0 | 0.0 | 1.7 | 0.00 | 0.00 | 0.00 | 58 | 1016.3 |
| 20260505111540 | 52 | 0 | 0.0 | 1.7 | 0.00 | 0.00 | 0.00 | 58 | 1016.3 |
| 20260505111027 | 52 | 0 | 0.0 | 1.7 | 0.00 | 0.00 | 0.00 | 57 | 1016.3 |
| 20260505110524 | 52 | 0 | 0.0 | 1.7 | 0.00 | 0.00 | 0.00 | 57 | 1016.3 |
| 20260505102025 | 47 | 0 | 0.0 | 0.0 | 0.00 | 0.00 | 0.00 | 68 | 1016.2 |
| 20260505101537 | 47 | 0 | 0.0 | 0.9 | 0.00 | 0.00 | 0.00 | 67 | 1016.2 |
| 20260505101022 | 47 | 104 | 0.0 | 0.9 | 0.00 | 0.00 | 0.00 | 67 | 1016.2 |
| 20260505100522 | 48 | 0 | 0.0 | 0.9 | 0.00 | 0.00 | 0.00 | 67 | 1016.1 |
| 20260505100035 | 48 | 0 | 0.0 | 0.0 | 0.00 | 0.00 | 0.00 | 66 | 1016.1 |
| 20260505095522 | 48 | 0 | 0.0 | 0.9 | 0.00 | 0.00 | 0.00 | 66 | 1016.1 |
| 20260505095024 | 48 | 0 | 0.0 | 0.9 | 0.00 | 0.00 | 0.00 | 66 | 1016.1 |
| 20260505094538 | 48 | 0 | 0.0 | 0.0 | 0.00 | 0.00 | 0.00 | 65 | 1016.1 |
| 20260505094022 | 49 | 0 | 0.0 | 0.0 | 0.00 | 0.00 | 0.00 | 65 | 1016.0 |
| 20260505093523 | 49 | 0 | 0.0 | 0.0 | 0.00 | 0.00 | 0.00 | 65 | 1016.0 |
| 20260505093040 | 49 | 0 | 0.0 | 0.9 | 0.00 | 0.00 | 0.00 | 65 | 1016.2 |
| 20260505092522 | 49 | 0 | 0.0 | 0.9 | 0.00 | 0.00 | 0.00 | 65 | 1016.2 |
| 20260505092022 | 49 | 104 | 0.0 | 0.9 | 0.00 | 0.00 | 0.00 | 64 | 1016.0 |
| 20260505091544 | 49 | 0 | 0.0 | 0.0 | 0.00 | 0.00 | 0.00 | 64 | 1016.0 |
| 20260505091022 | 50 | 0 | 0.0 | 0.0 | 0.00 | 0.00 | 0.00 | 64 | 1016.0 |
| 20260505090522 | 49 | 0 | 0.0 | 0.0 | 0.00 | 0.00 | 0.00 | 64 | 1015.9 |
| 20260505090038 | 49 | 0 | 0.0 | 0.9 | 0.00 | 0.00 | 0.00 | 64 | 1016.0 |
| 20260505085522 | 49 | 0 | 0.0 | 0.9 | 0.00 | 0.00 | 0.00 | 63 | 1015.9 |
| 20260505085025 | 50 | 0 | 0.0 | 0.0 | 0.00 | 0.00 | 0.00 | 63 | 1015.9 |
| 20260505084535 | 50 | 0 | 0.0 | 0.0 | 0.00 | 0.00 | 0.00 | 63 | 1015.8 |
| 20260505084023 | 50 | 0 | 0.0 | 0.9 | 0.00 | 0.00 | 0.00 | 62 | 1015.8 |
| 20260505083521 | 50 | 0 | 0.0 | 0.9 | 0.00 | 0.00 | 0.00 | 62 | 1016.0 |
| 20260505083040 | 50 | 0 | 0.0 | 0.9 | 0.00 | 0.00 | 0.00 | 62 | 1016.0 |
| 20260505082522 | 50 | 0 | 0.0 | 2.6 | 0.00 | 0.00 | 0.00 | 62 | 1015.9 |
| 20260505082023 | 50 | 0 | 0.0 | 2.6 | 0.00 | 0.00 | 0.00 | 63 | 1015.8 |
| 20260505081540 | 50 | 0 | 0.9 | 2.6 | 0.00 | 0.00 | 0.00 | 63 | 1015.9 |
| 20260505081023 | 50 | 94 | 0.9 | 1.7 | 0.00 | 0.00 | 0.00 | 62 | 1015.7 |
| 20260505080523 | 51 | 0 | 0.0 | 0.0 | 0.00 | 0.00 | 0.00 | 61 | 1015.4 |
| 20260505080038 | 51 | 0 | 0.0 | 0.0 | 0.00 | 0.00 | 0.00 | 61 | 1015.4 |
| 20260505075523 | 51 | 0 | 0.0 | 0.0 | 0.00 | 0.00 | 0.00 | 61 | 1015.4 |
| 20260505075024 | 51 | 0 | 0.0 | 0.0 | 0.00 | 0.00 | 0.00 | 61 | 1015.4 |
| 20260505074537 | 51 | 0 | 0.0 | 0.0 | 0.00 | 0.00 | 0.00 | 61 | 1015.3 |
| 20260505074022 | 52 | 0 | 0.0 | 0.0 | 0.00 | 0.00 | 0.00 | 60 | 1015.5 |
| 20260505073522 | 52 | 0 | 0.0 | 0.0 | 0.00 | 0.00 | 0.00 | 60 | 1015.4 |
| 20260505073037 | 52 | 0 | 0.0 | 0.0 | 0.00 | 0.00 | 0.00 | 59 | 1015.4 |
| 20260505072526 | 52 | 0 | 0.0 | 0.0 | 0.00 | 0.00 | 0.00 | 59 | 1015.3 |
| 20260505072024 | 52 | 0 | 0.0 | 0.0 | 0.00 | 0.00 | 0.00 | 59 | 1015.3 |
| 20260505071545 | 52 | 0 | 0.0 | 0.0 | 0.00 | 0.00 | 0.00 | 59 | 1015.5 |
| 20260505071022 | 52 | 0 | 0.0 | 0.0 | 0.00 | 0.00 | 0.00 | 59 | 1015.4 |
| 20260505070526 | 52 | 0 | 0.0 | 0.0 | 0.00 | 0.00 | 0.00 | 60 | 1015.5 |
| 20260505070047 | 52 | 0 | 0.0 | 0.0 | 0.00 | 0.00 | 0.00 | 60 | 1015.5 |
| 20260505065524 | 52 | 0 | 0.0 | 0.0 | 0.00 | 0.00 | 0.00 | 60 | 1015.6 |
| 20260505065024 | 52 | 0 | 0.0 | 0.0 | 0.00 | 0.00 | 0.00 | 59 | 1015.7 |
| 20260505064538 | 52 | 0 | 0.0 | 0.0 | 0.00 | 0.00 | 0.00 | 59 | 1015.7 |
| 20260505064022 | 52 | 0 | 0.0 | 0.0 | 0.00 | 0.00 | 0.00 | 59 | 1015.8 |
| 20260505063522 | 52 | 0 | 0.0 | 0.0 | 0.00 | 0.00 | 0.00 | 59 | 1015.9 |
| 20260505063048 | 53 | 0 | 0.0 | 0.0 | 0.00 | 0.00 | 0.00 | 59 | 1015.8 |
| 20260505062526 | 53 | 0 | 0.0 | 0.0 | 0.00 | 0.00 | 0.00 | 58 | 1015.9 |
| 20260505062022 | 53 | 0 | 0.0 | 0.0 | 0.00 | 0.00 | 0.00 | 58 | 1016.0 |
| 20260505061603 | 53 | 0 | 0.0 | 0.0 | 0.00 | 0.00 | 0.00 | 58 | 1015.9 |
| 20260505061025 | 53 | 0 | 0.0 | 0.0 | 0.00 | 0.00 | 0.00 | 57 | 1015.9 |
| 20260505060528 | 53 | 0 | 0.0 | 0.0 | 0.00 | 0.00 | 0.00 | 57 | 1016.0 |
| 20260505060036 | 53 | 0 | 0.0 | 0.0 | 0.00 | 0.00 | 0.00 | 57 | 1015.9 |
| 20260505055525 | 53 | 0 | 0.0 | 0.0 | 0.00 | 0.00 | 0.00 | 57 | 1016.0 |
| 20260505055023 | 53 | 0 | 0.0 | 0.0 | 0.00 | 0.00 | 0.00 | 57 | 1015.9 |
| 20260505054541 | 54 | 0 | 0.0 | 0.0 | 0.00 | 0.00 | 0.00 | 57 | 1015.9 |
| 20260505054024 | 54 | 0 | 0.0 | 0.0 | 0.00 | 0.00 | 0.00 | 57 | 1015.9 |
| 20260505053523 | 54 | 0 | 0.0 | 0.0 | 0.00 | 0.00 | 0.00 | 57 | 1016.0 |
| 20260505053043 | 54 | 0 | 0.0 | 0.0 | 0.00 | 0.00 | 0.00 | 55 | 1016.0 |
| 20260505052526 | 54 | 0 | 0.0 | 0.0 | 0.00 | 0.00 | 0.00 | 55 | 1016.0 |
| 20260505052023 | 55 | 0 | 0.0 | 0.0 | 0.00 | 0.00 | 0.00 | 56 | 1016.0 |
| 20260505051557 | 55 | 0 | 0.0 | 0.0 | 0.00 | 0.00 | 0.00 | 55 | 1016.0 |
| 20260505051023 | 55 | 0 | 0.0 | 0.0 | 0.00 | 0.00 | 0.00 | 54 | 1016.1 |
| 20260505050523 | 55 | 0 | 0.0 | 0.0 | 0.00 | 0.00 | 0.00 | 53 | 1016.1 |
| 20260505041543 | 58 | 0 | 0.0 | 0.0 | 0.00 | 0.00 | 0.00 | 49 | 1016.1 |
| 20260505041023 | 58 | 0 | 0.0 | 0.0 | 0.00 | 0.00 | 0.00 | 49 | 1016.1 |
| 20260505040523 | 58 | 0 | 0.0 | 0.0 | 0.00 | 0.00 | 0.00 | 49 | 1016.1 |
| 20260505040040 | 58 | 0 | 0.0 | 0.0 | 0.00 | 0.00 | 0.00 | 49 | 1016.1 |
| 20260505035523 | 58 | 0 | 0.0 | 0.0 | 0.00 | 0.00 | 0.00 | 49 | 1016.1 |
| 20260505035020 | 58 | 0 | 0.0 | 0.0 | 0.00 | 0.00 | 0.00 | 50 | 1016.1 |
| 20260505034537 | 59 | 0 | 0.0 | 0.0 | 0.00 | 0.00 | 0.00 | 49 | 1016.1 |
| 20260505034025 | 59 | 0 | 0.0 | 0.0 | 0.00 | 0.00 | 0.00 | 49 | 1016.1 |
| 20260505033526 | 59 | 0 | 0.0 | 0.0 | 0.00 | 0.00 | 0.00 | 48 | 1016.1 |
| 20260505033033 | 59 | 0 | 0.0 | 0.0 | 0.00 | 0.00 | 0.00 | 48 | 1016.2 |
| 20260505032524 | 60 | 0 | 0.0 | 0.0 | 0.00 | 0.00 | 0.00 | 47 | 1016.2 |
| 20260505032023 | 60 | 0 | 0.0 | 1.7 | 0.00 | 0.00 | 0.00 | 47 | 1016.2 |
| 20260505031540 | 60 | 0 | 0.0 | 1.7 | 0.00 | 0.00 | 0.00 | 47 | 1016.0 |
| 20260505031023 | 60 | 105 | 0.9 | 1.7 | 0.00 | 0.00 | 0.00 | 49 | 1016.1 |
| 20260505030524 | 60 | 0 | 0.0 | 0.0 | 0.00 | 0.00 | 0.00 | 48 | 1016.0 |
| 20260505030039 | 60 | 0 | 0.0 | 0.0 | 0.00 | 0.00 | 0.00 | 48 | 1016.1 |
| 20260505025524 | 61 | 0 | 0.0 | 0.0 | 0.00 | 0.00 | 0.00 | 47 | 1016.1 |
| 20260505025023 | 61 | 0 | 0.0 | 0.0 | 0.00 | 0.00 | 0.00 | 47 | 1016.1 |
| 20260505024545 | 61 | 0 | 0.0 | 0.0 | 0.00 | 0.00 | 0.00 | 46 | 1016.1 |
| 20260505024023 | 62 | 0 | 0.0 | 0.0 | 0.00 | 0.00 | 0.00 | 45 | 1016.1 |
| 20260505023523 | 62 | 0 | 0.0 | 0.0 | 0.00 | 0.00 | 0.00 | 45 | 1016.1 |
| 20260505023038 | 62 | 0 | 0.0 | 0.0 | 0.00 | 0.00 | 0.00 | 45 | 1016.1 |
| 20260505022523 | 62 | 0 | 0.0 | 0.0 | 0.00 | 0.00 | 0.00 | 44 | 1015.9 |
| 20260505022023 | 63 | 0 | 0.0 | 0.0 | 0.00 | 0.00 | 0.00 | 44 | 1015.9 |
| 20260505021536 | 63 | 0 | 0.0 | 0.0 | 0.00 | 0.00 | 0.00 | 44 | 1015.9 |
| 20260505021023 | 63 | 0 | 0.0 | 0.0 | 0.00 | 0.00 | 0.00 | 44 | 1015.8 |
| 20260505020524 | 63 | 0 | 0.0 | 0.0 | 0.00 | 0.00 | 0.00 | 43 | 1015.8 |
| 20260505020036 | 64 | 0 | 0.0 | 0.0 | 0.00 | 0.00 | 0.00 | 43 | 1015.8 |
| 20260505015524 | 64 | 0 | 0.0 | 0.0 | 0.00 | 0.00 | 0.00 | 42 | 1015.8 |
| 20260505015024 | 65 | 0 | 0.0 | 0.0 | 0.00 | 0.00 | 0.00 | 41 | 1015.6 |
| 20260505014540 | 65 | 0 | 0.0 | 0.0 | 0.00 | 0.00 | 0.00 | 40 | 1015.6 |
| 20260505014026 | 65 | 0 | 0.0 | 0.9 | 0.00 | 0.00 | 0.00 | 40 | 1015.6 |
| 20260505013523 | 65 | 0 | 0.0 | 0.9 | 0.00 | 0.00 | 0.00 | 40 | 1015.6 |
| 20260505013040 | 65 | 0 | 0.0 | 0.9 | 0.00 | 0.00 | 0.00 | 40 | 1015.6 |
| 20260505012524 | 65 | 0 | 0.0 | 0.9 | 0.00 | 0.00 | 0.00 | 40 | 1015.6 |
| 20260505012025 | 65 | 131 | 0.9 | 0.9 | 0.00 | 0.00 | 0.00 | 40 | 1015.5 |
| 20260505011538 | 65 | 0 | 0.0 | 0.0 | 0.00 | 0.00 | 0.00 | 40 | 1015.4 |
| 20260505011024 | 65 | 155 | 0.0 | 0.0 | 0.00 | 0.00 | 0.00 | 40 | 1015.3 |
| 20260505010524 | 66 | 155 | 0.0 | 0.0 | 0.00 | 0.00 | 0.00 | 40 | 1015.3 |
| 20260505010038 | 66 | 0 | 0.0 | 0.0 | 0.00 | 0.00 | 0.00 | 39 | 1015.3 |
| 20260505005524 | 66 | 155 | 0.0 | 0.0 | 0.00 | 0.00 | 0.00 | 40 | 1015.2 |
| 20260505005024 | 67 | 0 | 0.0 | 0.0 | 0.00 | 0.00 | 0.00 | 39 | 1015.2 |
| 20260505004541 | 67 | 0 | 0.0 | 0.0 | 0.00 | 0.00 | 0.00 | 37 | 1015.2 |
| 20260505004023 | 67 | 0 | 0.0 | 0.0 | 0.00 | 0.00 | 0.00 | 37 | 1015.1 |
| 20260505003523 | 68 | 0 | 0.0 | 0.0 | 0.00 | 0.00 | 0.00 | 37 | 1015.1 |
| 20260505003038 | 68 | 0 | 0.0 | 0.0 | 0.00 | 0.00 | 0.00 | 36 | 1015.1 |
| 20260505002525 | 69 | 185 | 0.0 | 0.9 | 0.00 | 0.00 | 0.00 | 36 | 1015.1 |
| 20260505002024 | 69 | 185 | 0.0 | 0.9 | 0.00 | 0.00 | 0.00 | 35 | 1015.0 |
| 20260505001538 | 69 | 185 | 0.0 | 0.9 | 0.00 | 0.00 | 0.00 | 34 | 1015.1 |
| 20260505001024 | 70 | 0 | 0.0 | 0.9 | 0.00 | 0.00 | 0.00 | 33 | 1015.0 |
| 20260505000524 | 70 | 0 | 0.0 | 0.0 | 0.00 | 0.00 | 0.00 | 34 | 1015.1 |
| 20260505000045 | 71 | 0 | 0.0 | 0.0 | 0.00 | 0.00 | 0.00 | 32 | 1015.0 |
| 20260504235524 | 71 | 204 | 0.0 | 0.9 | 0.00 | 0.00 | 0.00 | 32 | 1015.0 |
| 20260504235028 | 72 | 0 | 0.0 | 0.9 | 0.00 | 0.00 | 0.00 | 31 | 1015.0 |
| 20260504234537 | 72 | 0 | 0.0 | 0.9 | 0.00 | 0.00 | 0.00 | 30 | 1014.9 |
| 20260504234025 | 73 | 0 | 0.0 | 0.0 | 0.00 | 0.00 | 0.00 | 30 | 1014.9 |
| 20260504233522 | 73 | 0 | 0.0 | 0.0 | 0.00 | 0.00 | 0.00 | 30 | 1014.9 |
| 20260504233101 | 73 | 0 | 0.0 | 0.9 | 0.00 | 0.00 | 0.00 | 31 | 1014.8 |
| 20260504232526 | 73 | 0 | 0.0 | 0.9 | 0.00 | 0.00 | 0.00 | 30 | 1014.8 |
| 20260504232025 | 73 | 0 | 0.0 | 0.9 | 0.00 | 0.00 | 0.00 | 29 | 1014.8 |
| 20260504231544 | 74 | 250 | 0.0 | 0.9 | 0.00 | 0.00 | 0.00 | 28 | 1014.7 |
| 20260504231025 | 74 | 0 | 0.0 | 0.9 | 0.00 | 0.00 | 0.00 | 28 | 1014.7 |
| 20260504230526 | 74 | 250 | 0.0 | 0.9 | 0.00 | 0.00 | 0.00 | 28 | 1014.7 |
| 20260504230050 | 74 | 0 | 0.0 | 2.6 | 0.00 | 0.00 | 0.00 | 27 | 1014.7 |
| 20260504225526 | 75 | 0 | 0.0 | 2.6 | 0.00 | 0.00 | 0.00 | 26 | 1014.6 |
| 20260504225025 | 75 | 189 | 0.0 | 2.6 | 0.00 | 0.00 | 0.00 | 25 | 1014.6 |
| 20260504224537 | 76 | 248 | 0.0 | 1.7 | 0.00 | 0.00 | 0.00 | 24 | 1014.6 |
| 20260504224023 | 76 | 245 | 0.0 | 2.6 | 0.00 | 0.00 | 0.00 | 24 | 1014.6 |
| 20260504223524 | 76 | 148 | 0.0 | 2.6 | 0.00 | 0.00 | 0.00 | 25 | 1014.6 |
| 20260504223038 | 77 | 114 | 0.0 | 2.6 | 0.00 | 0.00 | 0.00 | 25 | 1014.6 |
| 20260504222523 | 77 | 110 | 0.0 | 2.6 | 0.00 | 0.00 | 0.00 | 24 | 1014.8 |
| 20260504222024 | 78 | 182 | 0.0 | 3.5 | 0.00 | 0.00 | 0.00 | 23 | 1014.6 |
| 20260504221536 | 78 | 194 | 0.0 | 3.5 | 0.00 | 0.00 | 0.00 | 22 | 1014.6 |
| 20260504221022 | 78 | 187 | 0.9 | 5.2 | 0.00 | 0.00 | 0.00 | 22 | 1014.7 |
| 20260504220523 | 78 | 185 | 0.9 | 5.2 | 0.00 | 0.00 | 0.00 | 24 | 1014.6 |
| 20260504220042 | 79 | 104 | 0.9 | 5.2 | 0.00 | 0.00 | 0.00 | 23 | 1014.7 |
| 20260504215522 | 78 | 0 | 0.0 | 2.6 | 0.00 | 0.00 | 0.00 | 22 | 1014.6 |
| 20260504215021 | 77 | 118 | 0.0 | 2.6 | 0.00 | 0.00 | 0.00 | 23 | 1014.7 |
| 20260504214538 | 77 | 262 | 0.0 | 3.5 | 0.00 | 0.00 | 0.00 | 22 | 1014.7 |
| 20260504214027 | 77 | 267 | 0.0 | 3.5 | 0.00 | 0.00 | 0.00 | 22 | 1014.6 |
| 20260504213521 | 78 | 207 | 0.0 | 2.6 | 0.00 | 0.00 | 0.00 | 22 | 1014.7 |
| 20260504213038 | 78 | 181 | 0.0 | 2.6 | 0.00 | 0.00 | 0.00 | 21 | 1014.7 |